Wind_Speed
14 14 14 13 12 11 12 12 12 11 11 10 9 9 10 13 16 11 8 13 4 7 4 9 5 11 4 1 3 2 3 3 5 7 5 10 8 7 3 2 2 4 4 14 28
15 14 14 14 13 13 13 13 12 11 11 10 9 7 8 13 13 13 24 20 17 11 5 5 5 10 4 2 1 3 2 4 5 7 10 16 11 11 6 5 2 2 15 29 29
16 15 15 14 14 14 14 14 13 12 11 9 7 5 6 9 4 8 5 13 22 14 12 5 5 1 3 2 5 5 4 6 6 7 10 13 8 4 6 3 7 16 20 23 27
17 17 16 16 15 15 15 15 15 14 11 7 4 3 4 2 1 2 7 7 11 17 8 3 3 2 3 4 1 3 11 7 6 8 6 9 7 6 7 4 9 18 23 18 20
17 17 17 17 16 16 16 16 16 15 9 5 2 1 2 2 9 5 8 1 12 18 7 3 2 3 3 6 8 7 7 6 2 12 7 9 5 5 1 9 15 18 20 20 17
18 18 17 17 17 17 16 18 18 13 5 2 2 2 2 2 4 4 5 2 7 14 9 6 3 3 3 4 3 5 6 5 6 9 10 9 5 1 2 12 17 18 17 16 17
19 19 18 18 18 18 19 19 16 9 3 4 5 3 0 13 4 1 2 2 8 12 5 5 5 2 5 6 5 7 3 3 2 5 5 10 3 1 5 13 14 13 12 12 14
20 20 19 19 20 19 19 17 9 2 3 6 5 2 7 4 7 14 10 10 12 12 12 7 6 2 3 5 6 5 5 3 3 7 7 5 5 5 11 15 13 10 9 10 10
20 20 21 20 20 18 16 7 3 3 7 6 2 1 9 9 7 10 12 4 5 9 7 4 3 4 3 3 5 6 1 3 8 5 8 4 3 5 9 11 10 9 9 9 6
20 20 21 20 20 16 10 3 4 5 5 2 2 3 6 3 4 5 10 8 3 4 2 4 3 1 3 4 3 3 4 5 7 2 4 4 2 8 10 10 9 7 6 6 6
21 21 20 20 18 15 7 1 3 1 3 9 4 3 4 9 3 4 7 5 3 4 4 2 3 5 7 5 6 4 1 9 7 3 3 4 7 9 7 6 7 4 4 5 3
21 21 21 19 17 13 8 2 2 2 6 12 9 7 10 3 4 3 6 4 4 4 4 4 6 9 2 3 3 3 4 10 5 5 4 5 12 7 6 2 4 8 9 6 4
22 23 21 19 16 8 4 7 6 7 1 7 6 6 5 10 7 6 8 5 4 5 5 7 5 4 3 4 4 8 4 5 6 3 4 8 5 5 3 4 6 4 4 6 9
24 22 20 18 6 0 5 7 11 9 4 6 4 7 5 6 3 9 12 6 1 9 7 5 4 4 5 6 6 7 6 9 10 4 4 4 3 4 4 4 6 7 7 8 7
26 22 17 6 5 3 5 11 9 3 2 3 4 2 4 9 1 2 6 5 7 5 7 8 3 5 6 13 4 11 6 7 4 5 3 3 5 5 3 7 9 9 8 8 8
28 20 13 6 8 7 10 8 6 5 5 2 4 5 5 0 1 3 5 3 3 2 1 7 1 5 7 6 7 10 3 6 4 4 2 3 4 5 6 10 5 5 8 9 8
28 20 10 6 3 2 6 3 4 3 6 3 4 4 3 4 2 3 6 6 5 4 4 6 5 4 4 5 2 4 5 3 4 4 4 2 2 8 6 4 8 14 11 8 8
26 12 9 19 13 6 4 4 3 3 6 5 3 4 6 5 4 3 4 4 1 5 3 4 7 5 5 8 10 6 8 6 4 3 3 3 4 3 4 8 6 5 8 8 10
8 1 3 1 15 1 4 2 6 4 4 7 3 4 2 3 4 4 6 7 8 8 8 5 6 4 2 2 7 2 3 3 7 3 3 3 6 9 8 9 9 11 10 12 13
5 2 3 1 17 3 5 4 4 4 7 5 5 1 5 2 4 7 9 6 6 11 7 5 2 4 5 3 0 5 6 3 3 4 3 4 5 6 6 8 8 8 15 15 13
2 2 6 14 10 5 3 5 5 5 8 7 5 4 7 7 9 5 7 5 11 7 10 6 4 7 3 3 5 3 1 5 5 5 5 2 6 8 11 10 10 8 11 13 13
4 3 3 10 4 1 2 5 4 3 4 7 4 8 5 3 4 9 11 11 13 10 11 9 5 6 11 6 3 4 8 6 5 6 1 4 7 4 9 11 12 12 11 11 13
2 1 9 6 2 2 5 5 4 5 5 5 4 4 1 3 1 2 2 7 7 10 11 8 3 3 11 8 2 4 4 4 6 4 6 6 7 4 4 7 7 9 0 5 11
2 3 3 3 1 4 2 6 3 5 6 4 5 3 3 4 3 2 7 4 7 6 3 12 5 8 10 8 4 3 2 2 6 4 4 7 11 3 6 12 7 8 7 3 6
1 0 3 3 4 6 4 3 7 4 2 3 0 4 3 3 1 4 2 6 5 9 4 10 10 8 7 5 6 6 5 5 4 6 6 7 9 7 14 16 12 8 9 6 1
2 2 4 1 3 2 5 1 3 4 1 5 4 2 2 1 6 4 4 3 3 8 7 4 4 5 3 4 7 3 4 4 3 3 6 1 6 5 2 5 7 6 9 9 4
5 3 2 3 3 2 2 4 4 2 4 3 2 4 4 3 1 6 4 5 1 2 3 3 5 3 5 1 2 4 2 2 2 3 4 4 7 2 3 6 4 8 7 8 8
Wind_Direction
353 350 347 345 344 342 341 337 330 321 311 302 292 292 303 304 306 292 242 236 207 210 289 338 13 337 320 216 158 126 26 145 191 153 200 197 170 163 157 114 294 186 169 142 146
349 348 344 343 342 340 339 339 333 325 316 306 297 297 307 314 317 265 257 255 246 242 271 31 346 338 344 267 151 123 195 220 163 166 183 173 170 166 159 146 268 88 114 133 147
347 346 342 340 340 338 337 335 331 325 317 308 300 300 310 326 305 249 331 248 235 232 235 296 297 1 293 232 172 194 211 228 176 159 179 175 163 128 142 198 211 157 140 147 153
345 343 340 338 338 337 336 335 329 327 320 309 305 309 316 341 220 263 330 256 215 208 204 276 60 19 301 318 179 184 239 250 133 147 139 159 123 163 198 222 158 151 150 150 160
343 342 338 337 336 335 332 330 329 321 314 301 329 343 87 8 253 296 329 306 181 179 172 204 107 207 336 290 327 178 215 259 128 166 166 134 139 172 106 119 134 147 149 159 167
342 339 336 335 333 331 329 328 330 319 292 243 122 116 93 263 272 272 333 350 162 168 187 172 202 168 282 309 350 302 241 198 226 154 177 126 144 80 78 138 137 152 158 167 174
340 337 334 332 329 327 328 330 327 316 237 164 136 107 172 236 128 86 288 283 214 196 195 180 215 87 341 303 240 289 334 59 268 162 122 103 37 263 155 136 145 144 156 154 174
339 335 333 331 330 329 330 329 319 288 172 143 128 133 245 248 250 262 249 263 242 242 235 252 211 193 183 273 317 353 48 23 264 137 168 91 229 241 154 154 156 146 155 175 184
337 335 332 331 328 329 337 347 12 116 128 123 92 143 268 301 260 241 220 214 185 225 228 258 163 201 0 50 0 4 54 278 312 180 151 172 219 200 177 168 158 158 168 185 195
336 333 331 329 329 330 343 357 86 102 122 111 273 336 276 333 243 192 191 193 131 132 150 150 71 102 37 70 232 5 346 346 280 223 50 89 150 169 181 168 163 163 163 184 205
334 331 330 327 326 331 354 23 26 332 218 195 190 258 280 329 278 220 168 124 121 73 147 109 95 233 229 180 210 277 290 311 265 63 116 149 168 179 181 119 133 156 206 212 138
331 328 326 322 319 314 312 217 190 297 300 228 234 269 272 327 312 289 159 136 136 168 127 26 204 236 246 251 288 300 309 289 299 237 136 112 49 72 127 130 163 190 204 208 197
330 327 324 321 314 301 240 252 273 352 1 290 182 210 207 155 202 247 140 151 144 155 163 173 212 143 198 296 301 287 234 236 210 74 48 108 21 16 15 132 176 196 194 202 204
329 326 323 319 304 256 248 13 329 190 44 269 226 264 160 163 258 200 166 137 167 182 151 229 266 245 288 277 174 281 234 247 245 111 201 69 224 295 281 224 203 191 185 186 191
327 324 320 309 301 226 159 330 108 122 355 191 211 158 143 153 162 216 156 58 162 169 112 235 200 187 217 237 150 246 309 241 237 115 71 31 95 265 175 226 223 211 198 187 202
325 321 310 256 226 222 299 332 147 46 258 232 134 162 109 178 30 130 129 68 169 175 139 224 320 175 222 267 203 259 214 33 57 105 83 202 136 254 195 215 204 212 222 187 191
324 312 268 200 216 136 312 106 59 152 323 188 180 145 122 153 208 109 144 157 160 128 293 336 278 255 183 283 186 126 58 347 0 15 213 350 47 236 203 189 196 197 216 190 169
324 281 243 221 205 333 138 61 169 235 257 298 120 86 163 147 203 136 97 191 249 101 108 180 316 187 173 189 225 200 163 150 201 196 245 44 240 237 195 183 201 192 207 192 165
345 41 243 274 192 325 80 98 212 226 328 341 31 97 241 215 158 127 180 196 204 166 175 156 267 297 143 197 144 243 198 193 102 39 80 251 291 302 175 194 199 187 217 186 180
324 307 283 179 168 145 76 237 249 241 321 21 51 64 198 218 159 154 177 200 218 181 157 214 302 260 293 193 329 168 163 88 4 127 231 280 274 238 244 190 180 214 178 181 180
346 57 0 143 136 53 164 241 276 271 6 355 334 269 212 205 171 191 214 261 201 192 160 147 127 259 99 188 224 351 343 44 115 125 167 212 262 212 210 190 172 168 166 168 176
345 59 146 140 55 36 180 204 291 307 320 261 213 218 261 231 239 197 200 215 193 147 168 184 164 233 231 250 245 207 208 155 134 229 155 155 271 218 204 174 166 173 165 168 175
72 112 165 340 152 267 281 271 235 262 229 227 253 231 291 146 265 241 241 255 195 161 183 170 226 295 325 348 15 214 222 145 113 100 191 147 263 357 132 178 217 155 76 148 172
103 92 349 37 139 156 263 267 262 300 253 222 262 226 111 19 14 18 341 327 328 206 44 137 144 174 219 207 180 281 243 130 119 119 182 218 249 238 203 189 214 130 124 126 163
29 76 180 215 277 231 160 297 331 316 320 334 299 29 183 131 1 34 322 314 355 356 112 157 203 174 232 224 192 222 220 159 183 176 159 266 219 204 207 189 194 168 139 153 179
63 40 351 258 311 313 155 188 230 283 220 333 83 34 93 233 194 195 148 340 88 328 16 329 220 137 226 199 215 252 67 96 136 104 277 293 289 236 63 78 158 128 141 148 128
352 342 121 272 323 105 210 234 253 243 200 237 314 347 39 0 1 348 89 136 140 93 311 353 132 103 215 179 159 316 208 219 261 172 147 182 229 180 88 114 97 116 159 153 145
Height
791 789 787 784 782 780 779 777 774 772 770 769 768 768 767 765 763 761 757 749 749 751 752 754 753 752 750 752 750 754 782 793 786 785 778 765 770 763 761 768 765 764 765 769 781
790 788 786 783 781 779 777 775 773 771 769 767 767 766 765 763 761 755 743 743 745 749 752 754 755 751 756 754 755 765 785 771 757 759 763 760 760 763 768 773 772 768 766 775 784
789 787 785 782 780 777 775 773 771 770 768 767 766 765 764 762 761 743 737 737 741 748 751 754 753 755 760 752 756 761 776 752 746 745 750 756 760 758 770 782 768 769 771 776 783
788 785 783 780 778 776 774 771 768 766 765 765 764 764 763 763 766 738 737 735 738 745 749 751 754 760 764 764 750 765 749 746 742 740 750 758 756 764 762 760 755 762 766 775 782
787 784 781 778 776 774 772 770 767 764 762 762 763 763 763 764 753 737 736 734 737 743 747 750 757 758 767 759 749 754 748 740 737 739 746 748 758 759 760 756 757 765 769 774 779
786 783 781 778 774 772 769 767 764 762 761 761 762 763 764 770 739 738 738 738 739 742 745 748 751 752 757 756 760 745 742 740 736 745 743 754 759 755 762 757 762 765 769 774 776
784 782 779 776 773 770 767 764 762 759 759 760 761 763 764 750 739 738 738 739 740 742 743 747 748 753 756 761 744 743 750 744 739 744 751 748 771 771 761 760 766 770 771 774 776
783 780 777 773 770 767 764 761 759 758 759 760 761 763 758 737 737 736 737 738 740 742 745 746 748 751 755 748 750 757 756 776 748 745 747 752 788 766 760 762 769 772 774 776 776
781 778 774 770 767 764 761 759 758 758 759 760 762 763 754 736 735 732 735 736 738 740 745 746 747 755 754 767 781 775 787 778 765 740 749 759 779 765 760 763 770 773 774 775 777
780 776 772 768 765 762 760 758 758 759 760 762 763 766 740 735 730 730 732 735 737 740 745 749 757 769 775 783 808 791 791 782 778 750 750 764 768 766 762 765 770 774 776 778 781
778 774 771 767 763 761 759 759 763 764 760 751 748 745 736 732 730 728 731 733 736 743 763 755 776 784 773 773 770 774 781 786 761 740 754 765 769 769 766 770 779 780 779 779 781
776 772 768 765 762 760 760 760 755 757 758 739 741 741 735 736 741 730 730 742 745 763 758 770 784 761 760 763 769 774 782 781 756 742 753 770 786 776 775 775 777 779 777 778 780
773 769 766 762 759 759 759 756 754 754 762 741 735 735 731 732 738 735 730 738 749 761 763 778 764 753 762 766 773 773 780 774 767 755 756 770 797 791 778 773 772 773 775 777 779
770 767 763 759 762 759 757 752 750 752 779 750 737 726 725 726 735 721 724 735 746 762 764 767 753 758 765 771 771 788 752 757 758 772 799 768 824 802 790 783 774 772 775 775 777
766 763 760 759 759 758 754 752 751 753 793 731 733 715 718 730 725 724 721 731 752 754 762 770 757 764 771 762 757 770 748 754 750 774 784 784 815 804 794 793 780 772 769 770 773
761 758 757 756 756 750 750 750 753 780 789 735 723 729 733 728 727 724 728 727 733 748 753 759 744 751 754 747 751 744 752 766 777 790 814 793 806 807 801 780 774 770 768 766 769
754 753 753 753 749 749 748 750 782 794 738 737 734 730 734 742 738 734 743 752 766 781 782 766 759 745 741 756 747 756 780 814 811 821 822 796 800 789 771 766 763 764 764 762 764
746 743 744 744 746 747 748 763 783 757 752 726 727 734 744 738 740 742 751 763 755 764 789 790 791 751 740 750 759 764 775 811 819 827 815 796 809 780 763 759 759 759 761 760 761
742 741 741 739 744 747 753 782 773 758 736 738 731 743 745 738 741 743 756 762 754 756 780 794 784 742 736 734 743 757 776 764 807 815 821 812 793 767 759 760 759 756 762 757 757
743 742 740 739 743 748 764 776 763 744 734 734 750 739 755 747 749 754 760 741 744 741 742 759 782 747 737 731 734 748 750 782 801 820 821 816 808 798 768 757 753 753 748 749 750
742 743 742 743 746 754 775 773 755 738 735 743 747 746 742 742 745 756 749 733 725 733 739 757 769 761 739 751 754 757 766 777 786 799 819 825 808 756 754 745 748 746 742 744 748
745 752 746 747 762 776 773 760 746 742 736 741 736 740 736 730 731 744 742 727 709 723 748 747 770 780 766 740 734 741 754 762 792 798 806 807 795 732 739 737 738 740 736 738 742
752 753 750 750 772 772 762 753 746 742 739 733 731 724 721 733 741 731 726 704 707 720 732 742 770 786 775 759 737 745 746 752 767 784 802 804 783 738 739 740 740 741 745 741 741
753 760 758 756 761 760 759 755 748 730 729 725 725 720 729 736 736 737 734 716 713 710 712 717 764 764 774 769 747 746 737 743 755 788 788 783 751 748 747 743 744 745 746 747 746
753 755 753 765 759 756 754 751 749 745 726 725 726 729 732 740 740 739 734 731 716 720 718 722 752 755 746 743 741 737 734 738 745 757 763 752 756 739 735 734 737 740 744 747 747
756 757 754 755 750 749 759 751 746 739 737 731 731 731 733 738 729 737 736 738 742 728 734 733 744 739 742 740 743 738 739 736 737 747 750 747 750 731 732 740 739 743 745 747 748
757 756 757 753 751 751 752 745 738 736 728 728 727 732 733 735 728 734 735 740 739 742 743 742 747 754 756 740 742 756 744 741 736 737 740 752 731 725 728 734 742 746 742 741 742